Stockton Lake Weather Center

Moon Phase Calendar



Stockton Lake Water Level
Online Cameras

 


      

Current Conditions in Stockton
8/7/2022 9:01:06 PM

85°F
Feels Like 93
Clouds
Humidity
72%
Pressure
30.06"
Wind
1 mph (NE)
Dew Point
75°F
UV Index
0/10 (Low)
Visibility
6 mi

Hourly Forecast

Date & Time Sun, Aug 7
9:00 PM
Sun, Aug 7
10:00 PM
Sun, Aug 7
11:00 PM
Mon, Aug 8
12:00 AM
Mon, Aug 8
1:00 AM
Mon, Aug 8
2:00 AM
Mon, Aug 8
3:00 AM
Mon, Aug 8
4:00 AM
Mon, Aug 8
5:00 AM
Mon, Aug 8
6:00 AM
Mon, Aug 8
7:00 AM
Mon, Aug 8
8:00 AM
Mon, Aug 8
9:00 AM
Mon, Aug 8
10:00 AM
Mon, Aug 8
11:00 AM
Mon, Aug 8
12:00 PM
Mon, Aug 8
1:00 PM
Mon, Aug 8
2:00 PM
Mon, Aug 8
3:00 PM
Mon, Aug 8
4:00 PM
Mon, Aug 8
5:00 PM
Mon, Aug 8
6:00 PM
Mon, Aug 8
7:00 PM
Mon, Aug 8
8:00 PM
Mon, Aug 8
9:00 PM
Mon, Aug 8
10:00 PM
Mon, Aug 8
11:00 PM
Tue, Aug 9
12:00 AM
Tue, Aug 9
1:00 AM
Tue, Aug 9
2:00 AM
Tue, Aug 9
3:00 AM
Tue, Aug 9
4:00 AM
Tue, Aug 9
5:00 AM
Tue, Aug 9
6:00 AM
Tue, Aug 9
7:00 AM
Tue, Aug 9
8:00 AM
Tue, Aug 9
9:00 AM
Tue, Aug 9
10:00 AM
Tue, Aug 9
11:00 AM
Tue, Aug 9
12:00 PM
Tue, Aug 9
1:00 PM
Tue, Aug 9
2:00 PM
Tue, Aug 9
3:00 PM
Tue, Aug 9
4:00 PM
Tue, Aug 9
5:00 PM
Tue, Aug 9
6:00 PM
Tue, Aug 9
7:00 PM
Tue, Aug 9
8:00 PM
Condition
Clouds

Clouds

Clouds

Clouds

Clouds

Clouds

Clouds

Clouds

Clouds

Clouds

Clouds

Clouds

Clouds

Clouds

Clouds

Clouds

Clouds

Clouds

Clouds

Clouds

Clouds

Clouds

Rain

Rain

Rain

Rain

Rain

Rain

Clouds

Clouds

Rain

Rain

Rain

Rain

Rain

Rain

Clouds

Clouds

Clouds

Clouds

Clouds

Clouds

Clouds

Clouds

Clouds

Clouds

Clouds

Rain
Temperature 85°F84°F83°F81°F79°F76°F75°F75°F75°F74°F74°F79°F83°F86°F90°F94°F96°F97°F96°F95°F95°F93°F86°F75°F74°F72°F72°F72°F72°F71°F70°F69°F70°F69°F71°F73°F76°F79°F83°F87°F88°F88°F88°F88°F88°F87°F86°F80°F
Feels Like 93°F90°F88°F84°F80°F77°F76°F76°F76°F75°F75°F79°F86°F89°F93°F96°F99°F100°F99°F98°F98°F96°F90°F76°F75°F74°F73°F73°F73°F72°F71°F71°F71°F71°F72°F74°F77°F79°F87°F91°F92°F92°F91°F91°F92°F91°F90°F83°F
Cloudiness 73%69%64%65%67%15%50%67%75%74%63%36%39%35%30%31%42%81%90%91%88%88%82%100%96%97%98%98%99%100%96%97%98%98%98%88%92%94%84%79%81%93%97%98%81%67%56%0%
Visibility 6 mi6 mi6 mi6 mi6 mi6 mi6 mi6 mi6 mi6 mi6 mi6 mi6 mi6 mi6 mi6 mi6 mi6 mi6 mi6 mi6 mi6 mi6 mi6 mi6 mi6 mi6 mi6 mi6 mi6 mi6 mi6 mi6 mi4 mi6 mi6 mi6 mi6 mi6 mi6 mi6 mi6 mi6 mi6 mi6 mi6 mi6 mi5 mi
Precipitation 0%0%0%0%0%0%0%0%0%10%17%37%26%14%14%6%6%0%3%14%24%34%34%69%76%80%86%86%86%30%52%80%89%96%96%79%83%71%67%58%51%13%21%15%19%19%22%43%
Humidity 72%70%70%70%73%76%77%77%76%77%78%69%59%52%45%39%37%36%37%38%39%42%58%85%89%92%91%91%87%89%92%94%95%96%93%89%83%75%64%56%52%51%52%52%52%52%56%68%
Dew Point 75°F73°F72°F70°F69°F68°F67°F67°F67°F66°F67°F67°F67°F67°F66°F65°F65°F65°F65°F66°F66°F66°F69°F70°F70°F70°F69°F68°F68°F67°F67°F67°F68°F68°F69°F70°F71°F70°F70°F69°F68°F68°F68°F68°F68°F68°F69°F69°F
Pressure 30.06"30.06"30.03"30.03"30"30"30"30"30"30"30.03"30.03"30.03"30.03"30.03"30"29.97"29.97"29.94"29.91"29.94"29.88"29.91"29.97"29.97"30"30"30"30"30"30"30"30"30"30.03"30.06"30.06"30.06"30.06"30.06"30.03"30.03"30.03"30"30"29.97"29.94"29.97"
Wind Speed 11.1 mph10.7 mph10.2 mph9.4 mph8.7 mph8.6 mph8.6 mph9.2 mph8.8 mph8 mph6.6 mph8.2 mph11.4 mph12.7 mph12.4 mph10.3 mph10.2 mph9 mph7.9 mph9.5 mph6.8 mph5 mph8 mph4.3 mph4.4 mph5.9 mph4.6 mph6.2 mph5.4 mph6.3 mph6.8 mph5.7 mph6.6 mph4.2 mph3.9 mph3.2 mph5.2 mph5.1 mph7.4 mph9 mph11.1 mph12.8 mph11.7 mph10.1 mph8 mph5.1 mph3.6 mph6.1 mph
Wind
Direction
181°
S
183°
S
197°
SSW
203°
SSW
196°
SSW
187°
S
191°
S
185°
S
189°
S
196°
SSW
206°
SSW
198°
SSW
226°
SW
242°
WSW
257°
WSW
283°
WNW
313°
NW
323°
NW
349°
N

N
25°
NNE

N
192°
SSW
175°
S
132°
SE
150°
SSE
218°
SW
227°
SW
178°
S
154°
SSE
227°
SW
195°
SSW
227°
SW
208°
SSW
164°
SSE
181°
S
239°
WSW
237°
WSW
232°
SW
236°
SW
243°
WSW
250°
WSW
251°
WSW
246°
WSW
243°
WSW
227°
SW
184°
S
193°
SSW

Daily Forecast

Date High Low Precip. Humidity
Today
Aug 7

Clouds
96 °F
75 °F
3%
45%
Monday
Aug 8

Rain
97 °F
72 °F
86%
37%
Tuesday
Aug 9

Rain
88 °F
69 °F
96%
52%
Wednesday
Aug 10

Rain
91 °F
72 °F
95%
56%
Thursday
Aug 11

Clouds
97 °F
72 °F
0%
38%
Friday
Aug 12

Rain
90 °F
69 °F
51%
56%
Saturday
Aug 13

Rain
91 °F
67 °F
61%
42%
Sunday
Aug 14

Rain
77 °F
62 °F
100%
91%
Monday
Aug 15

Rain
79 °F
66 °F
100%
61%
Tuesday
Aug 16

Rain
78 °F
66 °F
93%
78%
Wednesday
Aug 17

Rain
74 °F
68 °F
100%
92%
Thursday
Aug 18

Rain
81 °F
66 °F
100%
70%
Friday
Aug 19

Clear
81 °F
64 °F
48%
54%
Saturday
Aug 20

Rain
81 °F
64 °F
59%
69%
Sunday
Aug 21

Rain
88 °F
67 °F
30%
56%
Monday
Aug 22

Rain
81 °F
68 °F
88%
68%

Temperature 8-14 Day Outlook



Precipitation 8-14 Day Outlook






About Us
Contact Us
Site Map
Search Site
Advertise With Us
   
Stockton.USLakes.info
THE STOCKTON LAKE WEBSITE

Copyright 2022, Lakes Online
Privacy    |    Legal